STARLINK-32602, 62181

Orbit data source: Space-Track

STARLINK-32602, 62181 is a payload satellite owned by SpaceX/Seattle (US) in LEO that was launched on Sat, 30 Nov 2024 UTC via an FALCON 9 launch vehicle from the Air Force Western Test Range (AFWTR). Payload-class satellites include a variety of spacecraft equipped with specific instruments for various scientific and technological missions. These include communications satellites like Starlink; space stations such as the ISS; scientific satellites like the Hubble; Earth observation satellites from companies like Planet Labs, Umbra, and HawkEye 360; GPS; miniature CubeSats for education and research; and military/defense satellites.

Loading next visibility...
Identifier
62181, 2024-225U
Orbit
LEO
Country
Flag of USUS
Related business
Manufacturer
SpaceX/Seattle
Mission
Operational Commercial Communications
Bus & Motor
STARLINK V2M, Unknown motor
Mass
730 kg wet, ~700 kg dry
Launch date (UTC)
2024-11-30 (1 year ago)
Launch vehicle
FALCON 9
Launch site
Air Force Western Test Range (AFWTR)
Object type
Payload
Rocket body
Debris
Shape & HBR
Box + 2 Pan, 17.7 m
Radar Cross Section
33.884 m², Large (>1 m²)

Expand to show TLE details & history
Last TLE update: 14 hours ago

TLE from 14 hours ago
0 STARLINK-32602
1 62181U 24225U   26062.74149043  .00009979  00000-0  84260-3 0  9998
2 62181  70.0022 169.4660 0003203 263.6838  96.3957 14.98343615 69230
Epoch: 2026-03-03T17:47Z
TLE epoch observation values (Epoch: 2026-03-03T17:47:44.773Z)
Latitude
0.00006°
Longitude
101.01327°
Altitude
574.687 km
Speed
7.574 km/s
True Right ascension
11h 17m 51s
True Declination
0° 00' 00"
Sunlit
Object was in full shadow at epoch
Visualization orbit readout
Latitude
Unknown
Longitude
Unknown
Altitude
Unknown
Speed
Unknown
Apparent Right ascension
Unknown
Apparent Declination
Unknown
Sunlit
N/A
Visualization observer readout
Local Sidereal Time
11:18:20
Azimuth
Unknown
Elevation
Unknown
Doppler factor
Unknown
Orbital elements
Apogee altitude
572.187 km
Perigee altitude
567.736 km
Semi-major axis
6,948.099 km
Eccentricity
0.00032
Inclination
70.0022°
RAAN
169.466°
Arg. of periapsis
263.6838°
True anomaly
96.43217°
Mean anomaly
96.3957°
Eccentric anomaly
96.41394°
Mean motion
3.74752 °/min
Orbital period
96.06 mins
BSTAR
0.0008426
Loading maneuver chart data...
Computing Atmospheric mass density...
Loading historical data...
Loading historical data...
Loading historical data...
Loading historical data...
Loading historical data...
Loading historical data...
Loading historical data...

Documentation

Showing up to 5 results
|